Regional Weather Roundup
Issued by NWS

Home | Current Version | Previous Version | Text Only | Print | Product List | Glossary Off
Versions: 1 2 3 4 5 6 7 8 9 10 11 12 13 14 15 16 17 18 19 20 21 22 23 24 25 26 27 28 29 30 31 32 33 34 35 36 37 38 39 40 41 42 43 44 45 46 47 48 49 50

403
ASUS43 KLSX 272110
RWRMO

WEATHER SUMMARY FOR MISSOURI
NATIONAL WEATHER SERVICE SPRINGFIELD MO
400 PM CDT SAT AUG 27 2016

NOTE: "FAIR" INDICATES FEW OR NO CLOUDS BELOW 12,000 FEET WITH NO
       SIGNIFICANT WEATHER AND/OR OBSTRUCTIONS TO VISIBILITY.
       CURRENT SKY AND/OR WEATHER CONDITIONS ARE NOT AVAILABLE FOR
       CHILLICOTHE AND FARMINGTON.

MOZ001>031-035>038-043-044-053-054-272200-
...NORTHERN AND WESTERN MISSOURI...

CITY           SKY/WX    TMP DP  RH WIND       PRES   REMARKS
KANSAS CTY INT PTSUNNY   87  70  56 CALM      30.00F HX  92
KANSAS C DTWN  MOSUNNY   87  71  58 CALM      29.98F HX  93
LEE`S SUMMIT   PTSUNNY   86  71  60 S7        30.01F HX  91
ST JOSEPH      SUNNY     83  70  64 SW5       29.99F
KIRKSVILLE     MOSUNNY   86  69  56 W6        30.02F HX  90

$$
MOZ066>068-077>081-088>096-101>105-272200-
...SOUTHWEST MISSOURI...

CITY           SKY/WX    TMP DP  RH WIND       PRES   REMARKS
SPRINGFIELD    CLOUDY    86  69  56 SW3       30.03F HX  90
JOPLIN         SUNNY     88  69  53 SW6       30.01F HX  92
BRANSON        PTSUNNY   84  72  65 SE12      30.06F

$$
MOZ032>034-039>042-045>050-055>058-069>072-272200-
...CENTRAL MISSOURI...

CITY           SKY/WX    TMP DP  RH WIND       PRES   REMARKS
COLUMBIA       MOSUNNY   86  72  62 S6        30.03S HX  92
JEFFERSON CITY PTSUNNY   88  71  57 SE7       30.00F HX  94
ROLLA          PTSUNNY   85  72  65 SW3       30.03F HX  91
SEDALIA        SUNNY     89  69  51 VRB6      30.03S HX  93
WHITEMAN AFB   PTSUNNY   88  71  57 SW8       30.00F HX  93
OSAGE BEACH    PTSUNNY   80  69  69 SE7       30.04S

$$
MOZ051-052-059>065-272200-
...EAST CENTRAL MISSOURI...

CITY           SKY/WX    TMP DP  RH WIND       PRES   REMARKS
ST LOUIS INTL  PTSUNNY   92  70  48 S8        30.02F HX  97
SPIRIT OF STL  PTSUNNY   91  73  55 SW8       30.00F HX  99
ST CHARLES     MOSUNNY   90  73  57 W7        30.00F HX  98

$$
MOZ072>076-082>087-097>100-106>115-272200-
...SOUTH CENTRAL AND SOUTHEAST MISSOURI...

CITY           SKY/WX    TMP DP  RH WIND       PRES   REMARKS
CAPE GIRARDEAU MOSUNNY   89  74  60 VRB3      30.02F HX  98
FARMINGTON     MOSUNNY   88  73  61 S8        30.04F HX  95
POPLAR BLUFF   SUNNY     89  73  59 CALM      30.01F HX  97
WEST PLAINS    MOSUNNY   86  69  56 S6        30.07F HX  90

$$




USA.gov is the U.S. government's official web portal to all federal, state and local government web resources and services.